M I D A S
Marine Information and Data Acquisition System
Tripno 1773 of the Zeeleeuw from 2009-09-09 06:36:56 to 2009-09-09 15:09:02
Back to CruiseResearch ActivitiesStationsMapUnderway DataData graphs

EquipmentUnitsComments
TimeDGPSUTC
LatitudeDGPSDM.mWGS84
LongitudeDGPSDM.mWGS84
SpeedMeteo Stationm/sRelative wind speed
DirectionMeteo StationdegRelative wind direction
TemperatureMeteo Stationdeg CelciusAir temperature
PressureMeteo StationPaAtmospheric pressure
HumidityMeteo Station%Relative humidity
Missing or incorrect values are displayed as -999
Metereological data collected by the RV Zeeleeuw from 2009-09-09 06:28:54 to 2009-09-09 15:19:10
                                                                                    Next 1000 lines
Time Latitude Longitude Speed Direction Temperature Pressure Humidity
2009-09-09 06:29:04 51°13.662 2°55.956 6.2 263 17.6 102400 50
2009-09-09 06:29:09 51°13.662 2°55.953 5.5 264 17.6 102390 50
2009-09-09 06:29:14 51°13.663 2°55.949 8.4 41 17.6 102390 50
2009-09-09 06:29:19 51°13.664 2°55.944 5.9 266 17.5 102380 49
2009-09-09 06:29:24 51°13.665 2°55.939 5.1 264 17.5 102380 49
2009-09-09 06:29:30 51°13.666 2°55.932 5.8 22 17.6 102390 50
2009-09-09 06:29:36 51°13.668 2°55.924 8.8 306 17.6 102390 50
2009-09-09 06:29:42 51°13.671 2°55.915 6.8 266 17.5 102410 50
2009-09-09 06:29:47 51°13.672 2°55.908 7 267 17.5 102410 50
2009-09-09 06:29:53 51°13.675 2°55.899 6.2 268 17.5 102400 47
2009-09-09 06:29:58 51°13.678 2°55.89 7.5 30 17.5 102400 47
2009-09-09 06:30:03 51°13.68 2°55.882 6.4 266 17.5 102400 50
2009-09-09 06:30:08 51°13.683 2°55.873 6.5 34 17.5 102400 50
2009-09-09 06:30:13 51°13.686 2°55.865 6.6 267 17.5 102390 50
2009-09-09 06:30:18 51°13.688 2°55.857 7.8 265 17.5 102390 50
2009-09-09 06:30:22 51°13.69 2°55.851 5.6 264 17.5 102390 49
2009-09-09 06:30:28 51°13.693 2°55.841 5.4 7 17.5 102390 49
2009-09-09 06:30:33 51°13.696 2°55.833 6.1 29 17.5 102380 50
2009-09-09 06:30:38 51°13.698 2°55.826 6.8 34 17.5 102380 50
2009-09-09 06:30:43 51°13.701 2°55.819 6.4 268 17.6 102400 47
2009-09-09 06:30:48 51°13.705 2°55.811 7.7 36 17.6 102400 47
2009-09-09 06:30:53 51°13.708 2°55.804 7.1 26 17.6 102380 50
2009-09-09 06:30:58 51°13.711 2°55.797 8.2 36 17.6 102380 50
2009-09-09 06:31:03 51°13.715 2°55.79 8.4 27 17.6 102390 49
2009-09-09 06:31:08 51°13.718 2°55.784 6.9 40 17.6 102390 49
2009-09-09 06:31:13 51°13.722 2°55.779 5.9 25 17.6 102380 49
2009-09-09 06:31:18 51°13.725 2°55.774 3.7 38 17.6 102380 49
2009-09-09 06:31:23 51°13.726 2°55.77 6.9 29 17.6 102390 49
2009-09-09 06:31:27 51°13.728 2°55.768 7.7 37 17.6 102390 49
2009-09-09 06:31:32 51°13.73 2°55.765 5.9 26 17.6 102390 49
2009-09-09 06:31:37 51°13.732 2°55.762 7.2 37 17.6 102390 49
2009-09-09 06:31:42 51°13.734 2°55.759 7.2 27 17.6 102380 49
2009-09-09 06:31:46 51°13.736 2°55.755 5.3 38 17.6 102380 49
2009-09-09 06:31:51 51°13.739 2°55.751 5.4 29 17.6 102390 49
2009-09-09 06:31:56 51°13.742 2°55.747 6.8 53 17.6 102390 49
2009-09-09 06:32:02 51°13.746 2°55.741 7.1 22 17.6 102380 50
2009-09-09 06:32:07 51°13.749 2°55.736 8.8 39 17.6 102380 50
2009-09-09 06:32:13 51°13.754 2°55.731 9.3 23 17.6 102400 50
2009-09-09 06:32:18 51°13.758 2°55.725 7.2 31 17.6 102400 50
2009-09-09 06:32:23 51°13.762 2°55.72 8.1 25 17.6 102390 51
2009-09-09 06:32:28 51°13.766 2°55.715 6.4 40 17.6 102390 51
2009-09-09 06:32:33 51°13.77 2°55.709 6.2 27 17.6 102390 47
2009-09-09 06:32:38 51°13.774 2°55.704 7.2 37 17.6 102390 47
2009-09-09 06:32:42 51°13.777 2°55.699 8 26 17.6 102400 49
2009-09-09 06:32:48 51°13.782 2°55.693 10.3 32 17.6 102400 49
2009-09-09 06:32:53 51°13.786 2°55.687 9.6 25 17.6 102400 49
2009-09-09 06:32:58 51°13.791 2°55.681 7.7 32 17.6 102400 49
2009-09-09 06:33:03 51°13.796 2°55.676 7.2 22 17.6 102390 50
2009-09-09 06:33:08 51°13.8 2°55.67 5.4 40 17.6 102390 50
2009-09-09 06:33:13 51°13.805 2°55.664 7.9 22 17.6 102390 50
2009-09-09 06:33:18 51°13.81 2°55.659 10.4 36 17.6 102390 50
2009-09-09 06:33:23 51°13.815 2°55.654 9.4 24 17.6 102390 49
2009-09-09 06:33:28 51°13.82 2°55.649 8.3 37 17.6 102390 49
2009-09-09 06:33:33 51°13.825 2°55.644 8.1 26 17.6 102390 49
2009-09-09 06:33:38 51°13.83 2°55.64 9 37 17.6 102390 49
2009-09-09 06:33:43 51°13.836 2°55.636 10.4 28 17.6 102390 49
2009-09-09 06:33:48 51°13.841 2°55.633 9 38 17.6 102390 49
2009-09-09 06:33:53 51°13.847 2°55.631 8.8 25 17.6 102390 49
2009-09-09 06:33:58 51°13.852 2°55.628 8.1 38 17.6 102390 49
2009-09-09 06:34:03 51°13.857 2°55.626 8.2 20 17.5 102400 49
2009-09-09 06:34:08 51°13.862 2°55.625 10 34 17.5 102400 49
2009-09-09 06:34:13 51°13.867 2°55.624 10.2 23 17.5 102400 48
2009-09-09 06:34:18 51°13.872 2°55.624 7.3 39 17.5 102400 48
2009-09-09 06:34:23 51°13.876 2°55.624 8.5 26 17.6 102390 50
2009-09-09 06:34:28 51°13.88 2°55.624 8.3 38 17.6 102390 50
2009-09-09 06:34:33 51°13.884 2°55.625 7.9 28 17.5 102390 49
2009-09-09 06:34:38 51°13.888 2°55.625 6.8 34 17.5 102390 49
2009-09-09 06:34:43 51°13.891 2°55.626 5.8 27 17.6 102390 49
2009-09-09 06:34:48 51°13.895 2°55.628 6.4 33 17.6 102390 49
2009-09-09 06:34:53 51°13.898 2°55.629 7.3 25 17.5 102390 50
2009-09-09 06:34:58 51°13.901 2°55.631 7.2 36 17.5 102390 50
2009-09-09 06:35:02 51°13.903 2°55.632 8.2 29 17.6 102390 50
2009-09-09 06:35:08 51°13.905 2°55.633 7.7 35 17.6 102390 50
2009-09-09 06:35:12 51°13.907 2°55.634 8.6 27 17.6 102380 48
2009-09-09 06:35:17 51°13.908 2°55.635 8.6 34 17.6 102380 48
2009-09-09 06:35:22 51°13.909 2°55.635 7.8 29 17.6 102390 49
2009-09-09 06:35:26 51°13.909 2°55.635 7.9 38 17.6 102390 49
2009-09-09 06:35:32 51°13.909 2°55.633 7.3 43 17.6 102380 48
2009-09-09 06:35:36 51°13.909 2°55.631 8.3 43 17.6 102380 48
2009-09-09 06:35:41 51°13.908 2°55.629 7.8 38 17.6 102380 49
2009-09-09 06:35:46 51°13.908 2°55.627 7.3 33 17.6 102380 49
2009-09-09 06:35:50 51°13.908 2°55.625 7.7 39 17.6 102380 49
2009-09-09 06:35:56 51°13.908 2°55.624 6 32 17.6 102380 49
2009-09-09 06:36:00 51°13.907 2°55.624 6 30 17.6 102380 49
2009-09-09 06:36:05 51°13.908 2°55.625 7.9 33 17.6 102380 49
2009-09-09 06:36:10 51°13.908 2°55.626 7.3 27 17.6 102370 49
2009-09-09 06:36:14 51°13.908 2°55.626 6.9 38 17.6 102370 49
2009-09-09 06:36:19 51°13.907 2°55.628 7.1 34 17.6 102370 48
2009-09-09 06:36:24 51°13.907 2°55.631 8.5 39 17.6 102370 48
2009-09-09 06:36:29 51°13.907 2°55.633 7.7 35 17.6 102370 49
2009-09-09 06:36:34 51°13.907 2°55.635 6 31 17.6 102370 49
2009-09-09 06:36:39 51°13.907 2°55.637 6.4 27 17.6 102370 49
2009-09-09 06:36:44 51°13.906 2°55.635 7.8 25 17.6 102370 49
2009-09-09 06:36:49 51°13.906 2°55.632 6.9 27 17.6 102370 49
2009-09-09 06:36:54 51°13.906 2°55.628 7 22 17.6 102370 49
2009-09-09 06:36:59 51°13.907 2°55.623 7.7 10 17.6 102370 48
2009-09-09 06:37:05 51°13.909 2°55.616 8.6 5 17.6 102370 48
2009-09-09 06:37:09 51°13.911 2°55.611 7.2 5 17.6 102370 48
2009-09-09 06:37:14 51°13.913 2°55.605 6.8 358 17.6 102370 48
2009-09-09 06:37:19 51°13.916 2°55.599 8.3 354 17.6 102370 49
2009-09-09 06:37:25 51°13.921 2°55.593 7.5 354 17.6 102370 49
2009-09-09 06:37:29 51°13.924 2°55.589 7.3 351 17.6 102370 49
2009-09-09 06:37:34 51°13.929 2°55.582 8.1 349 17.6 102370 49
2009-09-09 06:37:39 51°13.935 2°55.576 7.8 352 17.6 102370 49
2009-09-09 06:37:44 51°13.942 2°55.569 8.9 346 17.6 102370 49
2009-09-09 06:37:49 51°13.95 2°55.562 7.5 346 17.6 102380 47
2009-09-09 06:37:54 51°13.958 2°55.554 8.4 344 17.6 102380 47
2009-09-09 06:37:59 51°13.966 2°55.547 8.8 347 17.6 102380 48
2009-09-09 06:38:04 51°13.974 2°55.539 10 346 17.6 102380 48
2009-09-09 06:38:09 51°13.983 2°55.53 11.7 346 17.6 102370 48
2009-09-09 06:38:14 51°13.993 2°55.522 11.3 340 17.6 102370 48
2009-09-09 06:38:19 51°14.002 2°55.512 9.8 346 17.6 102370 49
2009-09-09 06:38:25 51°14.013 2°55.502 10.4 346 17.6 102370 49
2009-09-09 06:38:29 51°14.021 2°55.495 11.6 344 17.6 102370 49
2009-09-09 06:38:34 51°14.031 2°55.486 10.4 344 17.6 102370 49
2009-09-09 06:38:39 51°14.041 2°55.477 12.7 344 17.6 102360 49
2009-09-09 06:38:45 51°14.052 2°55.467 11.5 343 17.6 102360 49
2009-09-09 06:38:49 51°14.061 2°55.459 10.8 344 17.6 102360 49
2009-09-09 06:38:54 51°14.07 2°55.45 12.6 344 17.6 102360 49
2009-09-09 06:38:58 51°14.078 2°55.443 9.8 344 17.6 102360 49
2009-09-09 06:39:04 51°14.091 2°55.433 11.7 342 17.6 102360 49
2009-09-09 06:39:09 51°14.101 2°55.424 10 347 17.6 102360 49
2009-09-09 06:39:14 51°14.111 2°55.415 8.1 340 17.6 102360 49
2009-09-09 06:39:19 51°14.121 2°55.406 9.3 339 17.6 102360 49
2009-09-09 06:39:25 51°14.134 2°55.395 10.5 343 17.6 102360 49
2009-09-09 06:39:29 51°14.142 2°55.387 11.6 345 17.6 102360 49
2009-09-09 06:39:34 51°14.153 2°55.378 11.5 346 17.6 102360 49
2009-09-09 06:39:39 51°14.163 2°55.368 10.6 346 17.6 102360 48
2009-09-09 06:39:44 51°14.172 2°55.357 11.8 347 17.6 102360 48
2009-09-09 06:39:49 51°14.182 2°55.346 11.7 346 17.6 102370 48
2009-09-09 06:39:54 51°14.192 2°55.335 10.4 349 17.6 102370 48
2009-09-09 06:39:59 51°14.202 2°55.324 9.8 348 17.6 102370 49
2009-09-09 06:40:05 51°14.212 2°55.31 11.1 352 17.6 102370 49
2009-09-09 06:40:10 51°14.221 2°55.297 11.9 351 17.6 102360 49
2009-09-09 06:40:14 51°14.228 2°55.286 10.1 352 17.6 102360 49
2009-09-09 06:40:19 51°14.236 2°55.273 11.3 353 17.6 102360 49
2009-09-09 06:40:24 51°14.244 2°55.26 10.6 353 17.6 102360 49
2009-09-09 06:40:29 51°14.252 2°55.245 12.3 354 17.6 102360 48
2009-09-09 06:40:34 51°14.26 2°55.231 10 352 17.6 102360 48
2009-09-09 06:40:39 51°14.268 2°55.215 9.2 354 17.6 102350 49
2009-09-09 06:40:44 51°14.276 2°55.2 9.9 358 17.6 102350 49
2009-09-09 06:40:49 51°14.284 2°55.185 9.1 358 17.6 102360 49
2009-09-09 06:40:54 51°14.292 2°55.17 12 356 17.6 102360 49
2009-09-09 06:40:59 51°14.3 2°55.154 11.1 356 17.6 102360 50
2009-09-09 06:41:04 51°14.307 2°55.138 11.7 354 17.6 102360 50
2009-09-09 06:41:09 51°14.315 2°55.122 10.8 355 17.6 102360 50
2009-09-09 06:41:14 51°14.322 2°55.105 11.4 357 17.6 102360 50
2009-09-09 06:41:19 51°14.329 2°55.088 10.9 358 17.6 102370 49
2009-09-09 06:41:25 51°14.338 2°55.067 12 357 17.6 102370 49
2009-09-09 06:41:29 51°14.343 2°55.052 12.1 357 17.6 102360 49
2009-09-09 06:41:34 51°14.35 2°55.034 12 359 17.6 102360 49
2009-09-09 06:41:39 51°14.356 2°55.016 12.6 359 17.5 102360 49
2009-09-09 06:41:45 51°14.364 2°54.993 11.2 360 17.5 102360 49
2009-09-09 06:41:49 51°14.37 2°54.977 11.7 2 17.5 102360 49
2009-09-09 06:41:54 51°14.376 2°54.957 11 357 17.5 102360 49
2009-09-09 06:41:59 51°14.382 2°54.938 9.6 357 17.5 102350 49
2009-09-09 06:42:04 51°14.388 2°54.917 10.5 1 17.5 102350 49
2009-09-09 06:42:09 51°14.393 2°54.895 10.8 3 17.5 102350 49
2009-09-09 06:42:14 51°14.397 2°54.873 10.5 5 17.5 102350 49
2009-09-09 06:42:19 51°14.399 2°54.849 8.9 4 17.5 102360 49
2009-09-09 06:42:25 51°14.401 2°54.82 8.8 4 17.5 102360 49
2009-09-09 06:42:30 51°14.402 2°54.795 6.9 6 17.5 102360 50
2009-09-09 06:42:34 51°14.403 2°54.776 10.4 8 17.5 102360 50
2009-09-09 06:42:39 51°14.403 2°54.75 9.6 8 17.5 102360 49
2009-09-09 06:42:44 51°14.402 2°54.725 9.4 14 17.5 102360 49
2009-09-09 06:42:49 51°14.4 2°54.7 10.7 12 17.5 102370 49
2009-09-09 06:42:54 51°14.396 2°54.675 7.6 16 17.5 102370 49
2009-09-09 06:42:58 51°14.392 2°54.656 8.3 16 17.5 102370 49
2009-09-09 06:43:04 51°14.386 2°54.626 6.7 15 17.5 102370 49
2009-09-09 06:43:09 51°14.381 2°54.602 7 17 17.5 102370 48
2009-09-09 06:43:14 51°14.375 2°54.578 8 20 17.5 102370 48
2009-09-09 06:43:19 51°14.369 2°54.553 7.1 19 17.5 102380 49
2009-09-09 06:43:25 51°14.361 2°54.524 6.5 21 17.5 102380 49
2009-09-09 06:43:29 51°14.357 2°54.504 7.1 20 17.5 102390 48
2009-09-09 06:43:34 51°14.351 2°54.48 6.3 16 17.5 102390 48
2009-09-09 06:43:39 51°14.345 2°54.455 7.9 17 17.5 102390 49
2009-09-09 06:43:45 51°14.338 2°54.425 7.4 15 17.5 102390 49
2009-09-09 06:43:49 51°14.333 2°54.406 7.3 17 17.5 102390 50
2009-09-09 06:43:54 51°14.329 2°54.381 5 10 17.5 102390 50
2009-09-09 06:43:59 51°14.321 2°54.356 7.3 15 17.5 102400 49
2009-09-09 06:44:05 51°14.315 2°54.327 7.4 16 17.5 102400 49
2009-09-09 06:44:09 51°14.31 2°54.308 7.5 8 17.5 102390 48
2009-09-09 06:44:14 51°14.303 2°54.283 7.7 16 17.5 102390 48
2009-09-09 06:44:19 51°14.298 2°54.259 7.2 20 17.5 102390 49
2009-09-09 06:44:24 51°14.29 2°54.235 10.2 15 17.5 102390 49
2009-09-09 06:44:29 51°14.285 2°54.21 8.8 13 17.5 102390 50
2009-09-09 06:44:34 51°14.278 2°54.187 8.1 20 17.5 102390 50
2009-09-09 06:44:39 51°14.272 2°54.162 7.6 17 17.5 102390 48
2009-09-09 06:44:44 51°14.266 2°54.138 5.9 8 17.5 102390 48
2009-09-09 06:44:49 51°14.259 2°54.114 8.2 17 17.5 102380 48
2009-09-09 06:44:54 51°14.253 2°54.09 7.6 16 17.5 102380 48
2009-09-09 06:44:59 51°14.247 2°54.066 7.6 18 17.5 102400 49
2009-09-09 06:45:04 51°14.241 2°54.041 7.6 14 17.5 102400 49
2009-09-09 06:45:09 51°14.234 2°54.017 8.3 18 17.5 102390 49
2009-09-09 06:45:14 51°14.229 2°53.992 6.2 15 17.5 102390 49
2009-09-09 06:45:19 51°14.222 2°53.968 7.8 16 17.5 102390 49
2009-09-09 06:45:25 51°14.215 2°53.938 7.8 16 17.5 102390 49
2009-09-09 06:45:29 51°14.21 2°53.919 6.7 15 17.5 102390 48
2009-09-09 06:45:34 51°14.204 2°53.894 8.1 22 17.5 102390 48
2009-09-09 06:45:39 51°14.197 2°53.869 7.2 20 17.5 102390 50
2009-09-09 06:45:45 51°14.19 2°53.84 7.4 21 17.5 102390 50
2009-09-09 06:45:49 51°14.184 2°53.82 7.1 20 17.5 102380 47
2009-09-09 06:45:54 51°14.178 2°53.795 8.2 17 17.5 102380 47
2009-09-09 06:45:58 51°14.173 2°53.775 6.1 23 17.5 102390 49
2009-09-09 06:46:04 51°14.165 2°53.745 5.9 20 17.5 102390 49
2009-09-09 06:46:09 51°14.159 2°53.721 6.9 20 17.5 102390 49
2009-09-09 06:46:14 51°14.152 2°53.696 6.9 18 17.5 102390 49
2009-09-09 06:46:19 51°14.146 2°53.672 7.2 22 17.5 102400 50
2009-09-09 06:46:25 51°14.138 2°53.643 7.1 22 17.5 102400 50
2009-09-09 06:46:29 51°14.133 2°53.623 7.6 25 17.5 102390 49
2009-09-09 06:46:34 51°14.125 2°53.599 5.9 21 17.5 102390 49
2009-09-09 06:46:39 51°14.118 2°53.576 6.9 21 17.5 102400 49
2009-09-09 06:46:44 51°14.11 2°53.552 6.1 21 17.5 102400 49
2009-09-09 06:46:49 51°14.102 2°53.529 6.5 22 17.5 102400 50
2009-09-09 06:46:54 51°14.094 2°53.507 5.8 19 17.5 102400 50
2009-09-09 06:46:59 51°14.086 2°53.484 6 14 17.5 102400 48
2009-09-09 06:47:04 51°14.077 2°53.461 7.2 25 17.5 102400 48
2009-09-09 06:47:09 51°14.069 2°53.439 5 28 17.5 102400 49
2009-09-09 06:47:14 51°14.06 2°53.417 5.8 16 17.5 102400 49
2009-09-09 06:47:19 51°14.051 2°53.394 5.3 16 17.5 102400 49
2009-09-09 06:47:25 51°14.042 2°53.367 5.9 24 17.5 102400 49
2009-09-09 06:47:29 51°14.034 2°53.35 6.2 22 17.6 102400 50
2009-09-09 06:47:34 51°14.025 2°53.328 7 20 17.6 102400 50
2009-09-09 06:47:39 51°14.016 2°53.305 5.5 19 17.6 102410 49
2009-09-09 06:47:44 51°14.007 2°53.283 4.9 21 17.6 102410 49
2009-09-09 06:47:49 51°13.998 2°53.262 6.3 19 17.6 102400 48
2009-09-09 06:47:54 51°13.988 2°53.24 6.5 25 17.6 102400 48
2009-09-09 06:47:59 51°13.98 2°53.218 6.8 26 17.5 102400 50
2009-09-09 06:48:04 51°13.97 2°53.197 7.5 21 17.5 102400 50
2009-09-09 06:48:09 51°13.963 2°53.173 6.7 20 17.6 102410 48
2009-09-09 06:48:14 51°13.953 2°53.153 6.5 23 17.6 102410 48
2009-09-09 06:48:19 51°13.943 2°53.131 6.8 24 17.6 102410 49
2009-09-09 06:48:25 51°13.933 2°53.105 6.3 26 17.6 102410 49
2009-09-09 06:48:29 51°13.925 2°53.088 7.1 21 17.5 102400 48
2009-09-09 06:48:34 51°13.917 2°53.065 7.3 20 17.5 102400 48
2009-09-09 06:48:39 51°13.908 2°53.043 7.9 21 17.5 102400 49
2009-09-09 06:48:45 51°13.898 2°53.017 7.1 24 17.5 102400 49
2009-09-09 06:48:49 51°13.892 2°52.998 7.3 21 17.5 102400 48
2009-09-09 06:48:54 51°13.883 2°52.976 6.5 16 17.5 102400 48
2009-09-09 06:48:58 51°13.877 2°52.957 6.4 18 17.5 102400 48
2009-09-09 06:49:04 51°13.867 2°52.93 6.8 23 17.5 102400 48
2009-09-09 06:49:10 51°13.859 2°52.902 7.3 23 17.5 102400 48
2009-09-09 06:49:14 51°13.852 2°52.884 7.2 20 17.5 102400 48
2009-09-09 06:49:19 51°13.845 2°52.86 6.5 19 17.5 102400 48
2009-09-09 06:49:25 51°13.835 2°52.833 8.5 23 17.5 102400 48
2009-09-09 06:49:29 51°13.829 2°52.814 6.9 21 17.5 102400 49
2009-09-09 06:49:34 51°13.821 2°52.791 7.6 23 17.5 102400 49
2009-09-09 06:49:39 51°13.815 2°52.767 7.6 21 17.5 102400 49
2009-09-09 06:49:44 51°13.805 2°52.745 7.1 13 17.5 102400 49
2009-09-09 06:49:49 51°13.799 2°52.721 6.1 14 17.5 102400 48
2009-09-09 06:49:54 51°13.791 2°52.698 8.1 19 17.5 102400 48
2009-09-09 06:49:59 51°13.783 2°52.674 8.2 21 17.5 102400 50
2009-09-09 06:50:04 51°13.776 2°52.65 6.3 16 17.5 102400 50
2009-09-09 06:50:09 51°13.767 2°52.628 7.1 19 17.5 102400 49
2009-09-09 06:50:14 51°13.761 2°52.604 7.5 23 17.5 102400 49
2009-09-09 06:50:19 51°13.753 2°52.58 7.9 23 17.6 102410 49
2009-09-09 06:50:25 51°13.745 2°52.552 8.3 18 17.6 102410 49
2009-09-09 06:50:29 51°13.738 2°52.533 6.7 18 17.5 102400 49
2009-09-09 06:50:34 51°13.731 2°52.509 6.8 22 17.5 102400 49
2009-09-09 06:50:39 51°13.723 2°52.486 6.6 24 17.5 102400 48
2009-09-09 06:50:45 51°13.715 2°52.457 6.6 26 17.5 102400 48
2009-09-09 06:50:49 51°13.708 2°52.439 8.4 25 17.5 102400 48
2009-09-09 06:50:54 51°13.701 2°52.415 7.7 24 17.5 102400 48
2009-09-09 06:50:58 51°13.695 2°52.396 8 23 17.5 102400 49
2009-09-09 06:51:04 51°13.685 2°52.369 7.8 24 17.5 102400 49
2009-09-09 06:51:09 51°13.678 2°52.345 7.1 25 17.5 102400 47
2009-09-09 06:51:14 51°13.669 2°52.323 6.5 19 17.5 102400 47
2009-09-09 06:51:18 51°13.665 2°52.303 7.8 22 17.5 102400 48
2009-09-09 06:51:24 51°13.655 2°52.276 7.7 19 17.5 102400 48
2009-09-09 06:51:29 51°13.647 2°52.252 6.9 22 17.5 102400 49
2009-09-09 06:51:34 51°13.64 2°52.228 6.4 25 17.5 102400 49
2009-09-09 06:51:39 51°13.632 2°52.205 7.2 23 17.5 102400 48
2009-09-09 06:51:45 51°13.623 2°52.176 6.7 18 17.5 102400 48
2009-09-09 06:51:49 51°13.617 2°52.158 7.6 23 17.5 102400 48
2009-09-09 06:51:54 51°13.61 2°52.134 7.3 25 17.5 102400 48
2009-09-09 06:51:59 51°13.602 2°52.112 6.4 26 17.5 102410 49
2009-09-09 06:52:05 51°13.592 2°52.084 5.1 22 17.5 102410 49
2009-09-09 06:52:09 51°13.585 2°52.067 5 20 17.5 102410 49
2009-09-09 06:52:14 51°13.575 2°52.045 5 22 17.5 102410 49
2009-09-09 06:52:19 51°13.565 2°52.025 5.1 25 17.5 102410 49
2009-09-09 06:52:24 51°13.554 2°52.005 6.5 32 17.5 102410 49
2009-09-09 06:52:29 51°13.544 2°51.985 5 35 17.5 102400 49
2009-09-09 06:52:34 51°13.532 2°51.966 6.2 27 17.5 102400 49
2009-09-09 06:52:39 51°13.522 2°51.946 5.9 33 17.5 102410 50
2009-09-09 06:52:45 51°13.508 2°51.924 7 26 17.5 102410 50
2009-09-09 06:52:49 51°13.5 2°51.907 4.5 35 17.5 102410 48
2009-09-09 06:52:54 51°13.488 2°51.889 5.9 33 17.5 102410 48
2009-09-09 06:52:58 51°13.478 2°51.874 6.8 33 17.5 102410 49
2009-09-09 06:53:04 51°13.463 2°51.852 7.1 36 17.5 102410 49
2009-09-09 06:53:09 51°13.451 2°51.833 5.9 37 17.5 102410 49
2009-09-09 06:53:14 51°13.439 2°51.816 6.6 36 17.5 102410 49
2009-09-09 06:53:18 51°13.429 2°51.801 5.7 35 17.5 102410 48
2009-09-09 06:53:24 51°13.414 2°51.781 6.5 35 17.5 102410 48
2009-09-09 06:53:29 51°13.402 2°51.762 5.3 36 17.5 102410 48
2009-09-09 06:53:34 51°13.388 2°51.746 5.4 36 17.5 102410 48
2009-09-09 06:53:39 51°13.377 2°51.727 5.8 40 17.5 102420 47
2009-09-09 06:53:45 51°13.36 2°51.71 5.5 41 17.5 102420 47
2009-09-09 06:53:49 51°13.351 2°51.695 5.4 39 17.4 102410 47
2009-09-09 06:53:54 51°13.336 2°51.682 3.4 39 17.4 102410 47
2009-09-09 06:53:59 51°13.323 2°51.667 3.4 40 17.4 102410 49
2009-09-09 06:54:04 51°13.308 2°51.655 3.5 44 17.4 102410 49
2009-09-09 06:54:09 51°13.294 2°51.642 3.5 23 17.4 102410 47
2009-09-09 06:54:14 51°13.279 2°51.633 2.5 36 17.4 102410 47
2009-09-09 06:54:19 51°13.264 2°51.624 1.8 23 17.4 102410 47
2009-09-09 06:54:24 51°13.248 2°51.618 2.4 34 17.4 102410 47
2009-09-09 06:54:29 51°13.233 2°51.611 2.1 26 17.4 102420 48
2009-09-09 06:54:34 51°13.217 2°51.606 3.6 32 17.4 102420 48
2009-09-09 06:54:39 51°13.203 2°51.602 4 82 17.5 102420 48
2009-09-09 06:54:44 51°13.189 2°51.599 4.8 36 17.5 102420 48
2009-09-09 06:54:49 51°13.176 2°51.596 4.9 20 17.5 102420 49
2009-09-09 06:54:54 51°13.164 2°51.594 5.2 39 17.5 102420 49
2009-09-09 06:54:59 51°13.152 2°51.592 6.1 21 17.5 102420 48
2009-09-09 06:55:05 51°13.14 2°51.591 6.7 39 17.5 102420 48
2009-09-09 06:55:09 51°13.132 2°51.59 7.1 23 17.5 102420 48
2009-09-09 06:55:14 51°13.122 2°51.589 6.7 37 17.5 102420 48
2009-09-09 06:55:19 51°13.113 2°51.589 6.7 25 17.5 102420 49
2009-09-09 06:55:25 51°13.103 2°51.589 7 34 17.5 102420 49
2009-09-09 06:55:29 51°13.097 2°51.589 7.5 80 17.5 102420 48
2009-09-09 06:55:34 51°13.089 2°51.59 6.2 270 17.5 102420 48
2009-09-09 06:55:39 51°13.081 2°51.59 8.2 75 17.5 102420 48
2009-09-09 06:55:44 51°13.074 2°51.59 8.3 31 17.5 102420 48
2009-09-09 06:55:49 51°13.066 2°51.589 8.9 82 17.5 102410 48
2009-09-09 06:55:54 51°13.059 2°51.588 8.8 41 17.5 102410 48
2009-09-09 06:55:59 51°13.052 2°51.587 8.4 28 17.5 102400 48
2009-09-09 06:56:04 51°13.046 2°51.585 8.1 37 17.5 102400 48
2009-09-09 06:56:09 51°13.04 2°51.582 7.9 27 17.5 102410 48
2009-09-09 06:56:14 51°13.033 2°51.58 7.3 34 17.5 102410 48
2009-09-09 06:56:19 51°13.028 2°51.577 6.7 21 17.5 102410 48
2009-09-09 06:56:24 51°13.022 2°51.573 5 40 17.5 102410 48
2009-09-09 06:56:29 51°13.016 2°51.569 5.3 27 17.5 102410 46
2009-09-09 06:56:34 51°13.011 2°51.565 4.6 34 17.5 102410 46
2009-09-09 06:56:39 51°13.006 2°51.561 4.4 28 17.5 102410 47
2009-09-09 06:56:45 51°13 2°51.556 5.4 40 17.5 102410 47
2009-09-09 06:56:49 51°12.996 2°51.552 5.8 23 17.5 102420 47
2009-09-09 06:56:54 51°12.991 2°51.547 6.3 38 17.5 102420 47
2009-09-09 06:56:58 51°12.987 2°51.543 7.1 76 17.6 102420 49
2009-09-09 06:57:04 51°12.982 2°51.536 6.7 39 17.6 102420 49
2009-09-09 06:57:09 51°12.978 2°51.531 6.6 27 17.6 102420 49
2009-09-09 06:57:14 51°12.973 2°51.525 8.5 35 17.6 102420 49
2009-09-09 06:57:19 51°12.969 2°51.519 8.4 78 17.6 102420 49
2009-09-09 06:57:25 51°12.964 2°51.513 7.5 39 17.6 102420 49
2009-09-09 06:57:29 51°12.961 2°51.508 7 44 17.7 102420 49
2009-09-09 06:57:34 51°12.957 2°51.502 7.5 34 17.7 102420 49
2009-09-09 06:57:39 51°12.954 2°51.497 7.2 22 17.7 102420 48
2009-09-09 06:57:44 51°12.95 2°51.491 7.7 39 17.7 102420 48
2009-09-09 06:57:49 51°12.946 2°51.485 7.9 82 17.6 102430 48
2009-09-09 06:57:54 51°12.942 2°51.479 7.7 39 17.6 102430 48
2009-09-09 06:57:59 51°12.939 2°51.473 7.1 27 17.6 102420 49
2009-09-09 06:58:04 51°12.935 2°51.468 7.9 37 17.6 102420 49
2009-09-09 06:58:09 51°12.932 2°51.461 8.2 23 17.6 102420 48
2009-09-09 06:58:14 51°12.928 2°51.456 8 43 17.6 102420 48
2009-09-09 06:58:19 51°12.925 2°51.45 8.4 42 17.7 102420 48
2009-09-09 06:58:24 51°12.922 2°51.444 8.5 42 17.7 102420 48
2009-09-09 06:58:29 51°12.919 2°51.438 7.7 41 17.7 102420 48
2009-09-09 06:58:34 51°12.915 2°51.432 7.7 44 17.7 102420 48
2009-09-09 06:58:38 51°12.913 2°51.427 7.9 39 17.7 102420 48
2009-09-09 06:58:44 51°12.909 2°51.42 7.3 41 17.7 102420 48
2009-09-09 06:58:49 51°12.906 2°51.414 7.9 42 17.7 102420 48
2009-09-09 06:58:54 51°12.903 2°51.408 6.9 41 17.7 102420 48
2009-09-09 06:58:59 51°12.9 2°51.402 7.2 39 17.7 102430 48
2009-09-09 06:59:05 51°12.896 2°51.395 7.8 43 17.7 102430 48
2009-09-09 06:59:09 51°12.893 2°51.391 7.6 45 17.7 102420 47
2009-09-09 06:59:14 51°12.89 2°51.385 7.4 41 17.7 102420 47
2009-09-09 06:59:19 51°12.887 2°51.38 7.4 38 17.7 102430 48
2009-09-09 06:59:25 51°12.883 2°51.373 7.6 38 17.7 102430 48
2009-09-09 06:59:29 51°12.881 2°51.368 7.6 40 17.7 102420 47
2009-09-09 06:59:34 51°12.878 2°51.363 6.9 43 17.7 102420 47
2009-09-09 06:59:39 51°12.875 2°51.357 7.2 42 17.7 102420 48
2009-09-09 06:59:45 51°12.871 2°51.35 7.7 39 17.7 102420 48
2009-09-09 06:59:49 51°12.869 2°51.346 7.8 39 17.7 102420 48
2009-09-09 06:59:54 51°12.866 2°51.34 10 37 17.7 102420 48
2009-09-09 06:59:59 51°12.863 2°51.335 8.5 38 17.7 102420 49
2009-09-09 07:00:05 51°12.859 2°51.328 7.9 35 17.7 102420 49
2009-09-09 07:00:09 51°12.857 2°51.323 8.8 36 17.7 102420 49
2009-09-09 07:00:14 51°12.854 2°51.317 8.3 35 17.7 102420 49
2009-09-09 07:00:18 51°12.852 2°51.313 8.9 36 17.7 102430 49
2009-09-09 07:00:24 51°12.848 2°51.306 8.8 34 17.7 102430 49
2009-09-09 07:00:29 51°12.846 2°51.299 8.8 34 17.7 102430 49
2009-09-09 07:00:34 51°12.844 2°51.293 8.2 34 17.7 102430 49
2009-09-09 07:00:38 51°12.842 2°51.288 8.2 32 17.7 102420 48
2009-09-09 07:00:44 51°12.839 2°51.28 8.8 31 17.7 102420 48
2009-09-09 07:00:49 51°12.837 2°51.273 8.4 30 17.6 102420 48
2009-09-09 07:00:54 51°12.835 2°51.266 8.5 27 17.6 102420 48
2009-09-09 07:00:59 51°12.833 2°51.258 8.9 25 17.6 102420 48
2009-09-09 07:01:05 51°12.831 2°51.249 8.3 25 17.6 102420 48
2009-09-09 07:01:09 51°12.829 2°51.242 8.1 26 17.6 102420 48
2009-09-09 07:01:14 51°12.827 2°51.234 8.1 25 17.6 102420 48
2009-09-09 07:01:19 51°12.825 2°51.225 8.4 26 17.6 102420 48
2009-09-09 07:01:24 51°12.824 2°51.217 8.6 23 17.6 102420 48
2009-09-09 07:01:29 51°12.822 2°51.209 7.4 24 17.6 102420 49
2009-09-09 07:01:34 51°12.821 2°51.2 8.8 27 17.6 102420 49
2009-09-09 07:01:39 51°12.819 2°51.192 9 27 17.6 102420 49
2009-09-09 07:01:45 51°12.817 2°51.181 9.6 22 17.6 102420 49
2009-09-09 07:01:49 51°12.816 2°51.174 9.4 24 17.6 102420 46
2009-09-09 07:01:54 51°12.815 2°51.165 9.9 24 17.6 102420 46
2009-09-09 07:01:59 51°12.813 2°51.156 9.8 25 17.6 102420 48
2009-09-09 07:02:05 51°12.812 2°51.145 10.1 22 17.6 102420 48
2009-09-09 07:02:09 51°12.811 2°51.138 10.3 26 17.6 102420 49
2009-09-09 07:02:14 51°12.809 2°51.128 9.9 24 17.6 102420 49
2009-09-09 07:02:19 51°12.808 2°51.119 10.2 22 17.6 102420 48
2009-09-09 07:02:24 51°12.807 2°51.11 11.2 25 17.6 102420 48
2009-09-09 07:02:29 51°12.806 2°51.101 9.9 24 17.6 102430 48
2009-09-09 07:02:34 51°12.804 2°51.091 9.9 23 17.6 102430 48
2009-09-09 07:02:39 51°12.804 2°51.082 9.3 21 17.6 102430 48
2009-09-09 07:02:44 51°12.803 2°51.073 9.6 22 17.6 102430 48
2009-09-09 07:02:49 51°12.802 2°51.065 9 23 17.6 102410 48
2009-09-09 07:02:54 51°12.801 2°51.056 9.6 23 17.6 102410 48
2009-09-09 07:02:59 51°12.8 2°51.046 8.6 23 17.5 102430 48
2009-09-09 07:03:04 51°12.799 2°51.037 8.7 22 17.5 102430 48
2009-09-09 07:03:09 51°12.798 2°51.028 9.3 21 17.5 102430 48
2009-09-09 07:03:14 51°12.797 2°51.019 9 21 17.5 102430 48
2009-09-09 07:03:19 51°12.796 2°51.01 9 21 17.5 102420 47
2009-09-09 07:03:24 51°12.795 2°51 9.1 19 17.5 102420 47
2009-09-09 07:03:29 51°12.794 2°50.991 9.3 20 17.5 102420 48
2009-09-09 07:03:34 51°12.793 2°50.982 9.5 23 17.5 102420 48
2009-09-09 07:03:39 51°12.792 2°50.973 9.8 24 17.5 102420 47
2009-09-09 07:03:45 51°12.79 2°50.962 8.7 25 17.5 102420 47
2009-09-09 07:03:49 51°12.789 2°50.955 8.2 29 17.5 102430 48
2009-09-09 07:03:54 51°12.788 2°50.946 8.7 29 17.5 102430 48
2009-09-09 07:03:59 51°12.786 2°50.936 8.6 27 17.5 102430 48
2009-09-09 07:04:05 51°12.784 2°50.925 8.2 27 17.5 102430 48
2009-09-09 07:04:09 51°12.782 2°50.918 8 24 17.5 102430 47
2009-09-09 07:04:14 51°12.78 2°50.909 9.1 28 17.5 102430 47
2009-09-09 07:04:18 51°12.778 2°50.901 7.9 28 17.5 102420 47
2009-09-09 07:04:24 51°12.776 2°50.891 8.1 28 17.5 102420 47
2009-09-09 07:04:29 51°12.774 2°50.882 7.6 29 17.5 102430 47
2009-09-09 07:04:34 51°12.771 2°50.873 7.5 26 17.5 102430 47
2009-09-09 07:04:39 51°12.769 2°50.864 7.9 29 17.6 102420 49
2009-09-09 07:04:45 51°12.766 2°50.854 8.5 28 17.6 102420 49
2009-09-09 07:04:49 51°12.764 2°50.847 7.9 29 17.6 102430 47
2009-09-09 07:04:54 51°12.762 2°50.838 7.4 25 17.6 102430 47
2009-09-09 07:04:59 51°12.76 2°50.83 7.5 30 17.6 102420 48
2009-09-09 07:05:04 51°12.758 2°50.821 7.7 31 17.6 102420 48
2009-09-09 07:05:09 51°12.755 2°50.813 6.9 30 17.6 102430 48
2009-09-09 07:05:14 51°12.753 2°50.805 7.2 33 17.6 102430 48
2009-09-09 07:05:19 51°12.751 2°50.796 6.6 27 17.6 102440 49
2009-09-09 07:05:25 51°12.748 2°50.787 8.1 33 17.6 102440 49
2009-09-09 07:05:29 51°12.746 2°50.78 8 35 17.6 102430 48
2009-09-09 07:05:34 51°12.743 2°50.772 8.3 33 17.6 102430 48
2009-09-09 07:05:39 51°12.741 2°50.764 8 34 17.6 102430 49
2009-09-09 07:05:44 51°12.738 2°50.756 8.7 33 17.6 102430 49
2009-09-09 07:05:49 51°12.736 2°50.748 8.3 35 17.6 102430 48
2009-09-09 07:05:54 51°12.733 2°50.74 8.1 36 17.6 102430 48
2009-09-09 07:05:59 51°12.73 2°50.732 8.2 34 17.6 102430 49
2009-09-09 07:06:04 51°12.727 2°50.724 6.8 34 17.6 102430 49
2009-09-09 07:06:09 51°12.724 2°50.717 7.3 34 17.6 102430 48
2009-09-09 07:06:14 51°12.721 2°50.709 7.3 35 17.6 102430 48
2009-09-09 07:06:19 51°12.718 2°50.702 7.9 36 17.6 102430 49
2009-09-09 07:06:25 51°12.714 2°50.693 7.2 42 17.6 102430 49
2009-09-09 07:06:29 51°12.712 2°50.687 7.9 39 17.6 102430 49
2009-09-09 07:06:34 51°12.709 2°50.68 6.7 41 17.6 102430 49
2009-09-09 07:06:39 51°12.705 2°50.673 6.9 40 17.6 102420 49
2009-09-09 07:06:45 51°12.702 2°50.664 6.3 39 17.6 102420 49
2009-09-09 07:06:49 51°12.699 2°50.658 8.2 37 17.6 102430 48
2009-09-09 07:06:54 51°12.696 2°50.651 6.9 40 17.6 102430 48
2009-09-09 07:06:59 51°12.692 2°50.644 8.3 38 17.6 102420 48
2009-09-09 07:07:04 51°12.689 2°50.637 8.7 35 17.6 102420 48
2009-09-09 07:07:09 51°12.686 2°50.629 6.6 39 17.6 102430 47
2009-09-09 07:07:14 51°12.682 2°50.622 8.9 35 17.6 102430 47
2009-09-09 07:07:19 51°12.679 2°50.615 6.3 39 17.6 102430 48
2009-09-09 07:07:24 51°12.676 2°50.608 8.9 37 17.6 102430 48
2009-09-09 07:07:29 51°12.672 2°50.601 8.9 37 17.6 102430 48
2009-09-09 07:07:34 51°12.669 2°50.594 8.8 38 17.6 102430 48
2009-09-09 07:07:39 51°12.666 2°50.587 8.2 38 17.6 102430 47
2009-09-09 07:07:44 51°12.662 2°50.58 9 38 17.6 102430 47
2009-09-09 07:07:49 51°12.659 2°50.573 8.5 37 17.6 102430 48
2009-09-09 07:07:54 51°12.655 2°50.566 8.3 37 17.6 102430 48
2009-09-09 07:07:59 51°12.652 2°50.559 8.8 38 17.6 102430 47
2009-09-09 07:08:04 51°12.649 2°50.552 9.9 36 17.6 102430 47
2009-09-09 07:08:09 51°12.645 2°50.544 9.2 35 17.6 102440 48
2009-09-09 07:08:14 51°12.642 2°50.537 9.3 39 17.6 102440 48
2009-09-09 07:08:19 51°12.638 2°50.53 10.1 37 17.6 102440 47
2009-09-09 07:08:25 51°12.634 2°50.521 8.9 36 17.6 102440 47
2009-09-09 07:08:29 51°12.631 2°50.516 9.4 39 17.5 102430 48
2009-09-09 07:08:34 51°12.627 2°50.508 8.7 37 17.5 102430 48
2009-09-09 07:08:38 51°12.625 2°50.502 8.8 38 17.6 102430 47
2009-09-09 07:08:44 51°12.621 2°50.494 10 37 17.6 102430 47
2009-09-09 07:08:49 51°12.618 2°50.486 7.6 39 17.5 102430 48
2009-09-09 07:08:54 51°12.614 2°50.479 8.1 38 17.5 102430 48
2009-09-09 07:08:59 51°12.611 2°50.472 7.8 34 17.6 102430 48
2009-09-09 07:09:05 51°12.607 2°50.463 6.9 39 17.6 102430 48
2009-09-09 07:09:09 51°12.604 2°50.457 8.6 37 17.5 102430 47
2009-09-09 07:09:14 51°12.601 2°50.45 7.1 39 17.5 102430 47
2009-09-09 07:09:19 51°12.598 2°50.443 7.2 38 17.6 102430 48
2009-09-09 07:09:24 51°12.594 2°50.436 7.6 37 17.6 102430 48
2009-09-09 07:09:29 51°12.591 2°50.428 7.5 35 17.5 102440 47
2009-09-09 07:09:34 51°12.588 2°50.421 7.4 35 17.5 102440 47
2009-09-09 07:09:39 51°12.585 2°50.414 8.1 39 17.6 102440 48
2009-09-09 07:09:44 51°12.582 2°50.406 7.3 36 17.6 102440 48
2009-09-09 07:09:49 51°12.578 2°50.399 7.2 36 17.6 102430 46
2009-09-09 07:09:54 51°12.575 2°50.392 7 39 17.6 102430 46
2009-09-09 07:09:59 51°12.571 2°50.384 7.3 36 17.6 102430 47
2009-09-09 07:10:05 51°12.567 2°50.375 8.1 37 17.6 102430 47
2009-09-09 07:10:09 51°12.564 2°50.37 8.4 39 17.6 102430 48
2009-09-09 07:10:14 51°12.561 2°50.363 8.3 35 17.6 102430 48
2009-09-09 07:10:18 51°12.559 2°50.357 7.9 38 17.6 102430 49
2009-09-09 07:10:24 51°12.555 2°50.348 9.1 36 17.6 102430 49
2009-09-09 07:10:29 51°12.552 2°50.34 9.4 35 17.6 102430 48
2009-09-09 07:10:34 51°12.548 2°50.333 8.6 35 17.6 102430 48
2009-09-09 07:10:39 51°12.545 2°50.326 8.2 36 17.6 102430 48
2009-09-09 07:10:45 51°12.541 2°50.317 8 37 17.6 102430 48
2009-09-09 07:10:49 51°12.539 2°50.311 9.6 38 17.6 102430 47
2009-09-09 07:10:54 51°12.535 2°50.304 8.6 38 17.6 102430 47
2009-09-09 07:10:59 51°12.532 2°50.296 7.2 36 17.6 102430 48
2009-09-09 07:11:05 51°12.528 2°50.287 9.3 37 17.6 102430 48
2009-09-09 07:11:09 51°12.525 2°50.282 10 33 17.5 102440 47
2009-09-09 07:11:14 51°12.522 2°50.274 8.3 34 17.5 102440 47
2009-09-09 07:11:19 51°12.519 2°50.267 7.3 35 17.5 102420 47
2009-09-09 07:11:25 51°12.515 2°50.258 8.4 36 17.5 102420 47
2009-09-09 07:11:29 51°12.513 2°50.252 9.3 34 17.5 102440 47
2009-09-09 07:11:34 51°12.51 2°50.245 7.6 35 17.5 102440 47
2009-09-09 07:11:39 51°12.506 2°50.238 8 32 17.5 102430 46
2009-09-09 07:11:44 51°12.503 2°50.231 8.9 37 17.5 102430 46
2009-09-09 07:11:49 51°12.5 2°50.223 7.3 37 17.5 102430 47
2009-09-09 07:11:54 51°12.497 2°50.216 7.3 37 17.5 102430 47
2009-09-09 07:11:59 51°12.494 2°50.209 7.5 35 17.5 102440 47
2009-09-09 07:12:04 51°12.491 2°50.202 7.9 38 17.5 102440 47
2009-09-09 07:12:09 51°12.488 2°50.195 6.6 44 17.5 102430 48
2009-09-09 07:12:14 51°12.484 2°50.188 7.6 37 17.5 102430 48
2009-09-09 07:12:19 51°12.481 2°50.181 7.5 37 17.5 102430 48
2009-09-09 07:12:24 51°12.478 2°50.174 7.4 35 17.5 102430 48
2009-09-09 07:12:29 51°12.475 2°50.167 7.3 36 17.6 102430 47
2009-09-09 07:12:34 51°12.472 2°50.159 7 33 17.6 102430 47
2009-09-09 07:12:39 51°12.469 2°50.152 8 33 17.6 102420 48
2009-09-09 07:12:44 51°12.465 2°50.145 7.6 38 17.6 102420 48
2009-09-09 07:12:49 51°12.462 2°50.138 9.5 36 17.6 102430 47
2009-09-09 07:12:54 51°12.459 2°50.132 10.1 36 17.6 102430 47
2009-09-09 07:12:59 51°12.456 2°50.124 8.5 35 17.6 102430 48
2009-09-09 07:13:05 51°12.453 2°50.116 8.3 36 17.6 102430 48
2009-09-09 07:13:09 51°12.45 2°50.11 8.6 34 17.6 102440 48
2009-09-09 07:13:14 51°12.447 2°50.103 7.9 36 17.6 102440 48
2009-09-09 07:13:19 51°12.444 2°50.096 7.1 38 17.6 102440 48
2009-09-09 07:13:25 51°12.44 2°50.088 9 37 17.6 102440 48
2009-09-09 07:13:29 51°12.438 2°50.082 8.5 38 17.6 102440 46
2009-09-09 07:13:34 51°12.435 2°50.075 8.5 35 17.6 102440 46
2009-09-09 07:13:39 51°12.432 2°50.068 9.1 33 17.6 102430 47
2009-09-09 07:13:45 51°12.429 2°50.06 9.1 33 17.6 102430 47
2009-09-09 07:13:49 51°12.426 2°50.055 8.3 37 17.6 102430 47
2009-09-09 07:13:54 51°12.424 2°50.048 7.7 32 17.6 102430 47
2009-09-09 07:13:59 51°12.421 2°50.041 8.5 36 17.6 102430 48
2009-09-09 07:14:04 51°12.418 2°50.034 8.8 33 17.6 102430 48
2009-09-09 07:14:09 51°12.415 2°50.027 7.4 36 17.5 102440 47
2009-09-09 07:14:14 51°12.412 2°50.019 7.2 36 17.5 102440 47
2009-09-09 07:14:18 51°12.41 2°50.014 9 36 17.6 102430 47
2009-09-09 07:14:24 51°12.406 2°50.005 8.6 38 17.6 102430 47
2009-09-09 07:14:29 51°12.404 2°49.998 8 38 17.6 102430 48
2009-09-09 07:14:34 51°12.401 2°49.991 8.4 39 17.6 102430 48
2009-09-09 07:14:39 51°12.398 2°49.983 7.4 36 17.6 102430 48
2009-09-09 07:14:45 51°12.395 2°49.975 8.4 37 17.6 102430 48
2009-09-09 07:14:49 51°12.393 2°49.969 8 38 17.6 102430 47
2009-09-09 07:14:54 51°12.39 2°49.962 7.9 36 17.6 102430 47
2009-09-09 07:14:59 51°12.387 2°49.955 8.1 38 17.6 102440 48
2009-09-09 07:15:04 51°12.384 2°49.948 8.7 35 17.6 102440 48
2009-09-09 07:15:09 51°12.381 2°49.941 7.9 37 17.6 102440 47
2009-09-09 07:15:14 51°12.379 2°49.934 9.2 38 17.6 102440 47
2009-09-09 07:15:19 51°12.376 2°49.926 8.2 34 17.6 102430 47
2009-09-09 07:15:25 51°12.372 2°49.918 7.5 37 17.6 102430 47
2009-09-09 07:15:29 51°12.37 2°49.912 7.8 40 17.6 102440 47
2009-09-09 07:15:34 51°12.367 2°49.905 8.6 37 17.6 102440 47
2009-09-09 07:15:39 51°12.364 2°49.898 9.9 38 17.6 102440 47
2009-09-09 07:15:45 51°12.361 2°49.89 10.4 38 17.6 102440 47
2009-09-09 07:15:49 51°12.358 2°49.884 8.6 37 17.6 102440 47
2009-09-09 07:15:54 51°12.356 2°49.877 9.9 38 17.6 102440 47
2009-09-09 07:15:59 51°12.353 2°49.87 8.6 35 17.6 102440 47
2009-09-09 07:16:05 51°12.349 2°49.861 8 36 17.6 102440 47
2009-09-09 07:16:09 51°12.347 2°49.855 8.6 35 17.5 102440 46
2009-09-09 07:16:14 51°12.344 2°49.848 9.7 37 17.5 102440 46
2009-09-09 07:16:19 51°12.341 2°49.84 8.7 36 17.5 102440 47
2009-09-09 07:16:25 51°12.338 2°49.832 8.3 35 17.5 102440 47
2009-09-09 07:16:29 51°12.336 2°49.826 9.1 36 17.5 102430 47
2009-09-09 07:16:34 51°12.333 2°49.819 9.6 37 17.5 102430 47
2009-09-09 07:16:39 51°12.33 2°49.811 8.2 36 17.5 102440 47
2009-09-09 07:16:45 51°12.327 2°49.802 9.4 34 17.5 102440 47
2009-09-09 07:16:50 51°12.324 2°49.795 8.9 36 17.5 102440 47
2009-09-09 07:16:54 51°12.322 2°49.79 8.6 36 17.5 102440 47
2009-09-09 07:16:59 51°12.319 2°49.782 8.7 34 17.5 102440 47
2009-09-09 07:17:05 51°12.316 2°49.774 7.8 36 17.5 102440 47
2009-09-09 07:17:09 51°12.314 2°49.768 7.7 37 17.5 102440 47
2009-09-09 07:17:14 51°12.311 2°49.761 7 39 17.5 102440 47
2009-09-09 07:17:19 51°12.308 2°49.754 7.6 35 17.5 102440 46
2009-09-09 07:17:25 51°12.305 2°49.745 8.6 39 17.5 102440 46
2009-09-09 07:17:29 51°12.303 2°49.739 8.8 34 17.5 102430 46
2009-09-09 07:17:34 51°12.3 2°49.732 7.6 34 17.5 102430 46
2009-09-09 07:17:39 51°12.297 2°49.725 7.3 35 17.6 102440 48
2009-09-09 07:17:45 51°12.294 2°49.716 7.2 33 17.6 102440 48
2009-09-09 07:17:49 51°12.291 2°49.71 7.4 34 17.6 102440 46
2009-09-09 07:17:54 51°12.289 2°49.703 8.1 33 17.6 102440 46
2009-09-09 07:17:59 51°12.286 2°49.696 8.4 35 17.6 102430 48
2009-09-09 07:18:05 51°12.283 2°49.688 8.4 34 17.6 102430 48
2009-09-09 07:18:09 51°12.281 2°49.682 8.2 34 17.6 102430 47
2009-09-09 07:18:14 51°12.278 2°49.675 8.4 36 17.6 102430 47
2009-09-09 07:18:18 51°12.276 2°49.669 7 38 17.6 102430 47
2009-09-09 07:18:25 51°12.271 2°49.66 7.1 40 17.6 102430 47
2009-09-09 07:18:29 51°12.269 2°49.654 7.9 37 17.6 102430 47
2009-09-09 07:18:34 51°12.267 2°49.647 9.1 39 17.6 102430 47
2009-09-09 07:18:39 51°12.264 2°49.64 8.2 37 17.6 102440 47
2009-09-09 07:18:45 51°12.261 2°49.631 8.7 37 17.6 102440 47
2009-09-09 07:18:50 51°12.258 2°49.624 7.5 36 17.6 102440 46
2009-09-09 07:18:54 51°12.255 2°49.618 7.5 36 17.6 102440 46
2009-09-09 07:18:59 51°12.253 2°49.611 8.7 38 17.6 102440 46
2009-09-09 07:19:05 51°12.25 2°49.602 8.3 36 17.6 102440 46
2009-09-09 07:19:09 51°12.247 2°49.597 8.9 37 17.6 102440 47
2009-09-09 07:19:14 51°12.244 2°49.59 7.6 33 17.6 102440 47
2009-09-09 07:19:19 51°12.242 2°49.583 7.9 37 17.6 102440 46
2009-09-09 07:19:25 51°12.238 2°49.574 7.9 37 17.6 102440 46
2009-09-09 07:19:29 51°12.236 2°49.568 8 35 17.6 102450 47
2009-09-09 07:19:34 51°12.233 2°49.561 7.3 36 17.6 102450 47
2009-09-09 07:19:39 51°12.23 2°49.553 7.6 35 17.6 102450 46
2009-09-09 07:19:45 51°12.227 2°49.545 8.2 36 17.6 102450 46
2009-09-09 07:19:49 51°12.225 2°49.539 8 35 17.6 102440 47
2009-09-09 07:19:54 51°12.222 2°49.532 7.7 38 17.6 102440 47
2009-09-09 07:19:58 51°12.219 2°49.527 7.2 36 17.6 102440 47
2009-09-09 07:20:04 51°12.216 2°49.518 8.9 33 17.6 102440 47
2009-09-09 07:20:09 51°12.213 2°49.511 7.7 36 17.6 102450 48
2009-09-09 07:20:14 51°12.21 2°49.504 8.2 35 17.6 102450 48
2009-09-09 07:20:18 51°12.208 2°49.498 7.9 37 17.6 102440 48
2009-09-09 07:20:25 51°12.204 2°49.488 7.2 36 17.6 102440 48
2009-09-09 07:20:29 51°12.202 2°49.482 8.4 33 17.6 102450 45
2009-09-09 07:20:34 51°12.199 2°49.475 7.8 35 17.6 102450 45
2009-09-09 07:20:39 51°12.196 2°49.468 8.1 34 17.6 102450 47
2009-09-09 07:20:45 51°12.193 2°49.459 7.6 35 17.6 102450 47
2009-09-09 07:20:49 51°12.191 2°49.454 7.8 35 17.6 102450 47
2009-09-09 07:20:54 51°12.188 2°49.446 8.2 37 17.6 102450 47
2009-09-09 07:20:59 51°12.185 2°49.439 6.8 32 17.7 102450 48
2009-09-09 07:21:04 51°12.182 2°49.432 8.1 32 17.7 102450 48
2009-09-09 07:21:09 51°12.18 2°49.425 7.9 33 17.7 102440 47
2009-09-09 07:21:14 51°12.177 2°49.418 8.9 36 17.7 102440 47
2009-09-09 07:21:19 51°12.174 2°49.411 8.2 36 17.7 102450 48
2009-09-09 07:21:24 51°12.171 2°49.404 10.4 34 17.7 102450 48
2009-09-09 07:21:29 51°12.168 2°49.396 9.6 36 17.7 102450 48
2009-09-09 07:21:34 51°12.165 2°49.389 8.7 38 17.7 102450 48
2009-09-09 07:21:39 51°12.162 2°49.383 8.1 35 17.7 102450 47
2009-09-09 07:21:44 51°12.16 2°49.375 9.6 35 17.7 102450 47
2009-09-09 07:21:49 51°12.157 2°49.368 9 38 17.6 102460 47
2009-09-09 07:21:54 51°12.154 2°49.361 8.3 36 17.6 102460 47
2009-09-09 07:21:59 51°12.151 2°49.354 7.1 36 17.6 102450 47
2009-09-09 07:22:05 51°12.148 2°49.346 6.4 37 17.6 102450 47
2009-09-09 07:22:09 51°12.145 2°49.34 7.2 38 17.6 102450 47
2009-09-09 07:22:14 51°12.142 2°49.333 6.7 36 17.6 102450 47
2009-09-09 07:22:19 51°12.139 2°49.326 6.8 36 17.6 102450 48
2009-09-09 07:22:25 51°12.136 2°49.317 8.9 38 17.6 102450 48
2009-09-09 07:22:29 51°12.134 2°49.311 6.5 33 17.6 102450 47
2009-09-09 07:22:34 51°12.13 2°49.305 7.7 38 17.6 102450 47
2009-09-09 07:22:39 51°12.127 2°49.298 7.2 31 17.6 102450 47
2009-09-09 07:22:45 51°12.124 2°49.289 7.6 35 17.6 102450 47
2009-09-09 07:22:49 51°12.121 2°49.283 7.6 35 17.7 102450 48
2009-09-09 07:22:54 51°12.119 2°49.276 7.2 36 17.7 102450 48
2009-09-09 07:22:59 51°12.116 2°49.269 7 35 17.7 102450 48
2009-09-09 07:23:04 51°12.113 2°49.262 7.9 31 17.7 102450 48
2009-09-09 07:23:09 51°12.111 2°49.254 6.9 32 17.7 102450 47
2009-09-09 07:23:14 51°12.108 2°49.248 9.9 36 17.7 102450 47
2009-09-09 07:23:19 51°12.105 2°49.24 8.9 33 17.7 102450 48
2009-09-09 07:23:24 51°12.102 2°49.233 8.3 34 17.7 102450 48
2009-09-09 07:23:29 51°12.099 2°49.226 8.6 34 17.7 102460 47
2009-09-09 07:23:34 51°12.097 2°49.219 8.2 37 17.7 102460 47
2009-09-09 07:23:39 51°12.094 2°49.212 8 37 17.7 102450 48
2009-09-09 07:23:45 51°12.09 2°49.203 7.9 35 17.7 102450 48
2009-09-09 07:23:49 51°12.088 2°49.197 8.3 33 17.7 102460 48
2009-09-09 07:23:54 51°12.085 2°49.19 8 37 17.7 102460 48
2009-09-09 07:23:58 51°12.083 2°49.185 9 35 17.7 102450 48
2009-09-09 07:24:04 51°12.08 2°49.176 8.8 38 17.7 102450 48
2009-09-09 07:24:09 51°12.077 2°49.169 8.4 30 17.6 102460 47
2009-09-09 07:24:14 51°12.074 2°49.161 8.8 34 17.6 102460 47
2009-09-09 07:24:19 51°12.071 2°49.154 8.1 35 17.6 102460 47
2009-09-09 07:24:25 51°12.067 2°49.146 8.3 37 17.6 102460 47
2009-09-09 07:24:29 51°12.065 2°49.14 9 36 17.6 102450 47
2009-09-09 07:24:34 51°12.062 2°49.133 8.4 36 17.6 102450 47
2009-09-09 07:24:39 51°12.059 2°49.126 9.6 37 17.6 102460 47
2009-09-09 07:24:45 51°12.056 2°49.116 8 35 17.6 102460 47
2009-09-09 07:24:49 51°12.054 2°49.111 9.6 36 17.6 102460 47
2009-09-09 07:24:54 51°12.051 2°49.103 9.2 36 17.6 102460 47
2009-09-09 07:24:59 51°12.049 2°49.096 8.5 34 17.6 102460 46
2009-09-09 07:25:05 51°12.045 2°49.088 8.7 35 17.6 102460 46
2009-09-09 07:25:09 51°12.043 2°49.082 8.5 37 17.6 102470 47
2009-09-09 07:25:14 51°12.04 2°49.074 7.2 36 17.6 102470 47
2009-09-09 07:25:19 51°12.038 2°49.067 8.6 36 17.6 102460 47
2009-09-09 07:25:25 51°12.034 2°49.059 7.6 35 17.6 102460 47
2009-09-09 07:25:29 51°12.032 2°49.053 8.7 35 17.6 102460 46
2009-09-09 07:25:34 51°12.03 2°49.046 8.2 35 17.6 102460 46
2009-09-09 07:25:38 51°12.027 2°49.04 8.9 34 17.6 102450 47
2009-09-09 07:25:44 51°12.024 2°49.031 8.4 37 17.6 102450 47
2009-09-09 07:25:50 51°12.02 2°49.023 8.4 36 17.6 102460 46
2009-09-09 07:25:54 51°12.018 2°49.017 9.2 36 17.6 102460 46
2009-09-09 07:25:59 51°12.015 2°49.01 7.8 35 17.6 102450 47
2009-09-09 07:26:05 51°12.012 2°49.002 8.1 40 17.6 102450 47
2009-09-09 07:26:09 51°12.01 2°48.996 8.3 36 17.6 102460 47
2009-09-09 07:26:14 51°12.007 2°48.989 7.4 38 17.6 102460 47
2009-09-09 07:26:19 51°12.004 2°48.982 8.3 36 17.6 102460 47
2009-09-09 07:26:25 51°12.001 2°48.973 7.3 35 17.6 102460 47
2009-09-09 07:26:29 51°11.999 2°48.968 7.6 37 17.6 102460 46
2009-09-09 07:26:34 51°11.996 2°48.961 7.6 34 17.6 102460 46
2009-09-09 07:26:39 51°11.993 2°48.954 7.8 34 17.6 102460 47
2009-09-09 07:26:45 51°11.99 2°48.945 8.1 36 17.6 102460 47
2009-09-09 07:26:49 51°11.988 2°48.939 7.5 37 17.6 102460 48
2009-09-09 07:26:54 51°11.985 2°48.932 8.7 39 17.6 102460 48
2009-09-09 07:26:59 51°11.982 2°48.925 8.3 35 17.7 102450 47
2009-09-09 07:27:05 51°11.979 2°48.916 7.1 39 17.7 102450 47
2009-09-09 07:27:09 51°11.977 2°48.911 7 38 17.6 102460 48
2009-09-09 07:27:14 51°11.974 2°48.904 8.1 38 17.6 102460 48
2009-09-09 07:27:18 51°11.972 2°48.898 8 35 17.6 102450 48
2009-09-09 07:27:25 51°11.968 2°48.888 7.6 39 17.6 102450 48
2009-09-09 07:27:29 51°11.965 2°48.882 6.3 31 17.6 102460 47
2009-09-09 07:27:34 51°11.963 2°48.875 7.6 37 17.6 102460 47
2009-09-09 07:27:38 51°11.961 2°48.869 7.3 37 17.6 102460 47
2009-09-09 07:27:44 51°11.957 2°48.86 8.2 33 17.6 102460 47
2009-09-09 07:27:50 51°11.954 2°48.851 6.7 36 17.7 102460 48
2009-09-09 07:27:54 51°11.951 2°48.846 6.8 33 17.7 102460 48
2009-09-09 07:27:59 51°11.948 2°48.839 6.7 36 17.7 102450 48
2009-09-09 07:28:05 51°11.945 2°48.831 6.1 33 17.7 102450 48
2009-09-09 07:28:09 51°11.942 2°48.825 6.9 33 17.7 102450 48
2009-09-09 07:28:14 51°11.94 2°48.817 8.4 33 17.7 102450 48
2009-09-09 07:28:19 51°11.937 2°48.81 8 35 17.7 102460 47
2009-09-09 07:28:25 51°11.933 2°48.801 8.6 38 17.7 102460 47
2009-09-09 07:28:29 51°11.931 2°48.796 9.2 38 17.7 102460 47
2009-09-09 07:28:34 51°11.928 2°48.789 9.3 40 17.7 102460 47
2009-09-09 07:28:39 51°11.925 2°48.782 7.3 34 17.7 102460 47
2009-09-09 07:28:45 51°11.921 2°48.773 8.6 35 17.7 102460 47
2009-09-09 07:28:49 51°11.919 2°48.768 7.9 34 17.7 102460 47
2009-09-09 07:28:54 51°11.916 2°48.761 8.8 37 17.7 102460 47
2009-09-09 07:28:59 51°11.913 2°48.753 7.3 34 17.6 102460 46
2009-09-09 07:29:05 51°11.91 2°48.745 8.3 32 17.6 102460 46
2009-09-09 07:29:09 51°11.907 2°48.739 7.9 34 17.6 102460 47
2009-09-09 07:29:14 51°11.905 2°48.732 8.7 34 17.6 102460 47
2009-09-09 07:29:19 51°11.902 2°48.724 9.5 33 17.6 102450 47
2009-09-09 07:29:25 51°11.899 2°48.716 8.9 34 17.6 102450 47
2009-09-09 07:29:29 51°11.897 2°48.71 8.7 34 17.6 102460 48
2009-09-09 07:29:34 51°11.894 2°48.702 9.4 33 17.6 102460 48
2009-09-09 07:29:39 51°11.891 2°48.695 10.1 31 17.6 102460 47
2009-09-09 07:29:45 51°11.888 2°48.686 8.7 34 17.6 102460 47
2009-09-09 07:29:49 51°11.886 2°48.681 9.7 33 17.6 102460 46
2009-09-09 07:29:54 51°11.884 2°48.673 9.4 34 17.6 102460 46
2009-09-09 07:29:59 51°11.882 2°48.666 8 37 17.6 102460 46
2009-09-09 07:30:04 51°11.879 2°48.659 8.5 27 17.6 102460 46
2009-09-09 07:30:09 51°11.877 2°48.651 8 27 17.6 102460 47
2009-09-09 07:30:14 51°11.874 2°48.644 9.6 29 17.6 102460 47
2009-09-09 07:30:19 51°11.871 2°48.636 9.1 30 17.6 102460 46
2009-09-09 07:30:24 51°11.869 2°48.629 9.2 29 17.6 102460 46
2009-09-09 07:30:29 51°11.866 2°48.622 9.8 27 17.6 102460 47
2009-09-09 07:30:34 51°11.864 2°48.615 9 29 17.6 102460 47
2009-09-09 07:30:39 51°11.862 2°48.608 10.4 31 17.6 102460 48
2009-09-09 07:30:45 51°11.859 2°48.598 10.1 33 17.6 102460 48
2009-09-09 07:30:49 51°11.857 2°48.593 9.3 32 17.6 102460 47
2009-09-09 07:30:54 51°11.855 2°48.585 9.3 34 17.6 102460 47
2009-09-09 07:30:59 51°11.853 2°48.578 8.8 27 17.6 102460 47
2009-09-09 07:31:05 51°11.851 2°48.569 8.5 26 17.6 102460 47
2009-09-09 07:31:09 51°11.849 2°48.563 8.4 27 17.5 102460 45
2009-09-09 07:31:14 51°11.847 2°48.556 9.5 26 17.5 102460 45
2009-09-09 07:31:19 51°11.846 2°48.549 9.8 23 17.5 102470 46
2009-09-09 07:31:25 51°11.843 2°48.54 8.7 26 17.5 102470 46
2009-09-09 07:31:29 51°11.842 2°48.535 10.3 26 17.6 102470 47
2009-09-09 07:31:34 51°11.841 2°48.528 9.5 26 17.6 102470 47
2009-09-09 07:31:39 51°11.839 2°48.52 9.7 24 17.6 102460 47
2009-09-09 07:31:45 51°11.837 2°48.511 8.9 28 17.6 102460 47
2009-09-09 07:31:49 51°11.836 2°48.506 10 24 17.6 102460 48
2009-09-09 07:31:54 51°11.834 2°48.498 8.7 25 17.6 102460 48
2009-09-09 07:31:59 51°11.833 2°48.491 8.8 26 17.6 102460 47
2009-09-09 07:32:05 51°11.831 2°48.483 10.2 23 17.6 102460 47
2009-09-09 07:32:10 51°11.83 2°48.476 9.3 22 17.6 102470 47
2009-09-09 07:32:14 51°11.829 2°48.47 8.6 24 17.6 102470 47
2009-09-09 07:32:19 51°11.827 2°48.463 9.5 24 17.6 102460 47
2009-09-09 07:32:24 51°11.826 2°48.456 9.2 23 17.6 102460 47
2009-09-09 07:32:29 51°11.825 2°48.448 8.8 25 17.6 102470 47
2009-09-09 07:32:34 51°11.824 2°48.441 10.5 23 17.6 102470 47
2009-09-09 07:32:39 51°11.822 2°48.434 9.9 26 17.6 102470 48
2009-09-09 07:32:44 51°11.821 2°48.427 12.4 25 17.6 102470 48
2009-09-09 07:32:49 51°11.82 2°48.42 10.1 21 17.6 102460 47
2009-09-09 07:32:54 51°11.819 2°48.412 10.2 24 17.6 102460 47
2009-09-09 07:32:59 51°11.818 2°48.405 9.3 24 17.6 102460 47
2009-09-09 07:33:04 51°11.817 2°48.398 11 25 17.6 102460 47
2009-09-09 07:33:09 51°11.816 2°48.39 10.8 24 17.6 102460 46
2009-09-09 07:33:14 51°11.815 2°48.383 10.5 22 17.6 102460 46
2009-09-09 07:33:19 51°11.814 2°48.376 9.2 17 17.6 102480 47
2009-09-09 07:33:25 51°11.813 2°48.368 8.5 19 17.6 102480 47
2009-09-09 07:33:29 51°11.812 2°48.362 9.2 14 17.6 102470 46
2009-09-09 07:33:34 51°11.811 2°48.355 10.8 16 17.6 102470 46
2009-09-09 07:33:39 51°11.811 2°48.348 10.7 16 17.5 102470 46
2009-09-09 07:33:45 51°11.81 2°48.339 10.1 15 17.5 102470 46
2009-09-09 07:33:49 51°11.809 2°48.333 10.3 15 17.6 102470 46
2009-09-09 07:33:54 51°11.809 2°48.326 4.4 15 17.6 102470 46
2009-09-09 07:33:59 51°11.808 2°48.319 10.2 14 17.6 102470 47
2009-09-09 07:34:05 51°11.808 2°48.311 10.5 17 17.6 102470 47
2009-09-09 07:34:09 51°11.807 2°48.306 10.5 10 17.6 102460 47
2009-09-09 07:34:14 51°11.807 2°48.3 10.2 16 17.6 102460 47
2009-09-09 07:34:19 51°11.806 2°48.294 9.6 16 17.6 102450 48
2009-09-09 07:34:24 51°11.805 2°48.288 9.8 15 17.6 102450 48
2009-09-09 07:34:29 51°11.805 2°48.282 9.8 15 17.6 102460 46
2009-09-09 07:34:34 51°11.804 2°48.276 8.8 16 17.6 102460 46
2009-09-09 07:34:39 51°11.803 2°48.271 9.2 13 17.5 102460 47
2009-09-09 07:34:44 51°11.802 2°48.266 10.4 15 17.5 102460 47
2009-09-09 07:34:49 51°11.802 2°48.261 9.9 18 17.5 102460 46
2009-09-09 07:34:54 51°11.801 2°48.256 10.1 12 17.5 102460 46
2009-09-09 07:34:59 51°11.8 2°48.251 10.5 13 17.5 102460 47
2009-09-09 07:35:04 51°11.799 2°48.246 10 11 17.5 102460 47
2009-09-09 07:35:09 51°11.798 2°48.242 12.2 11 17.6 102460 46
2009-09-09 07:35:14 51°11.797 2°48.237 10 12 17.6 102460 46
2009-09-09 07:35:19 51°11.797 2°48.232 11.5 11 17.6 102460 47
2009-09-09 07:35:24 51°11.796 2°48.228 10.1 12 17.6 102460 47
2009-09-09 07:35:29 51°11.795 2°48.224 10.3 18 17.6 102460 47
2009-09-09 07:35:34 51°11.794 2°48.219 10.3 14 17.6 102460 47
2009-09-09 07:35:39 51°11.793 2°48.216 11 16 17.6 102460 46
2009-09-09 07:35:45 51°11.791 2°48.211 10.8 13 17.6 102460 46
2009-09-09 07:35:49 51°11.79 2°48.208 10.8 12 17.6 102460 47
2009-09-09 07:35:54 51°11.789 2°48.204 9.3 14 17.6 102460 47
2009-09-09 07:35:59 51°11.788 2°48.2 10.6 10 17.6 102460 47
2009-09-09 07:36:05 51°11.787 2°48.194 10.1 10 17.6 102460 47
2009-09-09 07:36:09 51°11.787 2°48.19 10.6 10 17.5 102460 46
2009-09-09 07:36:14 51°11.786 2°48.185 11.2 7 17.5 102460 46
2009-09-09 07:36:19 51°11.786 2°48.18 7.3 7 17.5 102470 47
2009-09-09 07:36:25 51°11.786 2°48.174 7.9 6 17.5 102470 47
2009-09-09 07:36:29 51°11.787 2°48.169 11.5 -999 17.5 102460 46
2009-09-09 07:36:34 51°11.787 2°48.164 10.8 359 17.5 102460 46
2009-09-09 07:36:39 51°11.788 2°48.158 10.2 359 17.5 102460 46
2009-09-09 07:36:44 51°11.789 2°48.153 11.3 357 17.5 102460 46
2009-09-09 07:36:49 51°11.791 2°48.147 9.9 354 17.5 102460 47
2009-09-09 07:36:54 51°11.793 2°48.142 9.6 355 17.5 102460 47
2009-09-09 07:36:59 51°11.795 2°48.137 10.3 278 17.5 102460 46
2009-09-09 07:37:05 51°11.799 2°48.132 11.4 346 17.5 102460 46
2009-09-09 07:37:09 51°11.801 2°48.129 10.7 343 17.5 102440 47
2009-09-09 07:37:14 51°11.804 2°48.126 11.6 339 17.5 102440 47
2009-09-09 07:37:18 51°11.807 2°48.124 10.6 279 17.5 102450 47
2009-09-09 07:37:24 51°11.812 2°48.122 12.1 331 17.5 102450 47
2009-09-09 07:37:29 51°11.816 2°48.122 12.4 331 17.5 102440 46
2009-09-09 07:37:34 51°11.82 2°48.123 12 322 17.5 102440 46
2009-09-09 07:37:38 51°11.822 2°48.124 12.2 277 17.5 102430 47
2009-09-09 07:37:44 51°11.827 2°48.128 13.3 319 17.5 102430 47
2009-09-09 07:37:49 51°11.831 2°48.134 14.1 282 17.5 102430 47
2009-09-09 07:37:54 51°11.834 2°48.14 15.1 315 17.5 102430 47
2009-09-09 07:37:58 51°11.838 2°48.146 14.2 282 17.5 102440 47
2009-09-09 07:38:04 51°11.843 2°48.156 13.8 317 17.5 102440 47
2009-09-09 07:38:09 51°11.848 2°48.165 13.2 317 17.5 102440 46
2009-09-09 07:38:14 51°11.853 2°48.176 13.6 317 17.5 102440 46
2009-09-09 07:38:19 51°11.86 2°48.187 15.3 281 17.5 102420 46
2009-09-09 07:38:25 51°11.868 2°48.202 15.9 319 17.5 102420 46
2009-09-09 07:38:29 51°11.873 2°48.212 16.1 285 17.5 102430 46
2009-09-09 07:38:34 51°11.88 2°48.226 13.9 320 17.5 102430 46
2009-09-09 07:38:39 51°11.889 2°48.239 15.5 281 17.5 102420 46
2009-09-09 07:38:45 51°11.898 2°48.256 15.7 319 17.5 102420 46
2009-09-09 07:38:49 51°11.904 2°48.267 15.6 276 17.5 102420 46
2009-09-09 07:38:54 51°11.913 2°48.281 14.8 320 17.5 102420 46
2009-09-09 07:38:59 51°11.921 2°48.295 14.6 283 17.5 102410 47
2009-09-09 07:39:04 51°11.93 2°48.309 16 321 17.5 102410 47
2009-09-09 07:39:09 51°11.939 2°48.324 16.4 321 17.5 102420 45
2009-09-09 07:39:14 51°11.947 2°48.338 17.7 321 17.5 102420 45
2009-09-09 07:39:19 51°11.956 2°48.352 15.2 283 17.5 102420 46
2009-09-09 07:39:25 51°11.967 2°48.37 14.4 322 17.5 102420 46
2009-09-09 07:39:30 51°11.975 2°48.385 14.6 281 17.5 102430 46
2009-09-09 07:39:34 51°11.982 2°48.397 14.9 320 17.5 102430 46
2009-09-09 07:39:39 51°11.991 2°48.412 14.6 280 17.5 102420 46
2009-09-09 07:39:44 51°11.999 2°48.428 15.5 320 17.5 102420 46
2009-09-09 07:39:49 51°12.008 2°48.443 14.2 320 17.5 102430 46
2009-09-09 07:39:54 51°12.016 2°48.459 13.8 319 17.5 102430 46
2009-09-09 07:39:59 51°12.025 2°48.474 14.4 278 17.6 102420 46
2009-09-09 07:40:05 51°12.034 2°48.493 15.4 319 17.6 102420 46
2009-09-09 07:40:09 51°12.041 2°48.506 13.8 321 17.5 102420 47
2009-09-09 07:40:14 51°12.049 2°48.522 12.2 319 17.5 102420 47
2009-09-09 07:40:19 51°12.058 2°48.537 13.5 281 17.6 102420 47
2009-09-09 07:40:25 51°12.067 2°48.556 13.6 319 17.6 102420 47
2009-09-09 07:40:29 51°12.074 2°48.568 11.7 282 17.6 102420 47
2009-09-09 07:40:34 51°12.082 2°48.584 14 322 17.6 102420 47
2009-09-09 07:40:39 51°12.09 2°48.6 13.8 281 17.6 102430 47
2009-09-09 07:40:45 51°12.1 2°48.619 11.7 320 17.6 102430 47
2009-09-09 07:40:49 51°12.107 2°48.632 14.7 284 17.6 102420 47
2009-09-09 07:40:54 51°12.115 2°48.647 14.2 320 17.6 102420 47
2009-09-09 07:40:59 51°12.123 2°48.663 13.4 284 17.6 102430 47
2009-09-09 07:41:05 51°12.133 2°48.682 14.3 320 17.6 102430 47
2009-09-09 07:41:09 51°12.14 2°48.695 14.3 319 17.7 102420 46
2009-09-09 07:41:14 51°12.148 2°48.711 12.5 320 17.7 102420 46
2009-09-09 07:41:19 51°12.156 2°48.727 13.2 284 17.7 102420 47
2009-09-09 07:41:25 51°12.166 2°48.746 13.7 319 17.7 102420 47
2009-09-09 07:41:29 51°12.173 2°48.758 13 286 17.7 102430 47
2009-09-09 07:41:34 51°12.181 2°48.774 13.8 322 17.7 102430 47
2009-09-09 07:41:38 51°12.188 2°48.787 15.1 280 17.7 102430 47
2009-09-09 07:41:44 51°12.198 2°48.806 15.6 320 17.7 102430 47
2009-09-09 07:41:50 51°12.208 2°48.825 12.1 283 17.7 102430 46
2009-09-09 07:41:54 51°12.215 2°48.837 12.3 321 17.7 102430 46
2009-09-09 07:41:59 51°12.222 2°48.854 15.1 284 17.7 102430 47
2009-09-09 07:42:05 51°12.231 2°48.873 14.7 320 17.7 102430 47
2009-09-09 07:42:09 51°12.237 2°48.885 15.2 321 17.7 102430 47
2009-09-09 07:42:14 51°12.245 2°48.9 14.8 321 17.7 102430 47
2009-09-09 07:42:19 51°12.252 2°48.915 13.9 282 17.7 102430 47
2009-09-09 07:42:25 51°12.262 2°48.932 15 320 17.7 102430 47
2009-09-09 07:42:29 51°12.268 2°48.945 14.9 279 17.7 102410 47
2009-09-09 07:42:34 51°12.276 2°48.96 14.4 320 17.7 102410 47
2009-09-09 07:42:39 51°12.285 2°48.975 15 285 17.7 102430 47
2009-09-09 07:42:45 51°12.294 2°48.994 14.4 320 17.7 102430 47
2009-09-09 07:42:49 51°12.301 2°49.007 12.5 280 17.7 102430 46
2009-09-09 07:42:54 51°12.309 2°49.022 15.1 321 17.7 102430 46
2009-09-09 07:42:59 51°12.317 2°49.038 14.3 282 17.6 102430 46
2009-09-09 07:43:05 51°12.327 2°49.057 14.2 321 17.6 102430 46
2009-09-09 07:43:09 51°12.333 2°49.069 13.5 320 17.6 102420 47
2009-09-09 07:43:14 51°12.341 2°49.085 15.4 321 17.6 102420 47
2009-09-09 07:43:19 51°12.35 2°49.101 16 281 17.7 102440 46
2009-09-09 07:43:25 51°12.36 2°49.12 14.8 317 17.7 102440 46
2009-09-09 07:43:29 51°12.366 2°49.132 13.8 281 17.7 102430 46
2009-09-09 07:43:34 51°12.374 2°49.148 13.4 318 17.7 102430 46
2009-09-09 07:43:38 51°12.381 2°49.161 12 280 17.6 102420 46
2009-09-09 07:43:44 51°12.39 2°49.18 12.5 317 17.6 102420 46
2009-09-09 07:43:49 51°12.399 2°49.195 12.9 282 17.7 102430 46
2009-09-09 07:43:54 51°12.407 2°49.211 12.8 317 17.7 102430 46
2009-09-09 07:43:58 51°12.413 2°49.224 14 281 17.7 102420 46
2009-09-09 07:44:04 51°12.423 2°49.243 14 320 17.7 102420 46
2009-09-09 07:44:09 51°12.432 2°49.259 15.5 320 17.7 102430 46
2009-09-09 07:44:14 51°12.44 2°49.275 15.4 320 17.7 102430 46
2009-09-09 07:44:19 51°12.448 2°49.29 14.8 284 17.7 102430 46
2009-09-09 07:44:25 51°12.458 2°49.309 13.8 320 17.7 102430 46
2009-09-09 07:44:29 51°12.465 2°49.321 12.4 278 17.7 102430 45
2009-09-09 07:44:34 51°12.473 2°49.338 12.9 319 17.7 102430 45
2009-09-09 07:44:39 51°12.481 2°49.353 13.2 284 17.7 102430 47
2009-09-09 07:44:45 51°12.491 2°49.372 13 320 17.7 102430 47
2009-09-09 07:44:49 51°12.498 2°49.384 13.8 282 17.7 102430 46
2009-09-09 07:44:54 51°12.505 2°49.4 13.1 320 17.7 102430 46
2009-09-09 07:44:59 51°12.513 2°49.416 15.9 283 17.7 102430 47
2009-09-09 07:45:05 51°12.523 2°49.434 15.9 320 17.7 102430 47
2009-09-09 07:45:09 51°12.53 2°49.447 13.5 322 17.7 102420 46
2009-09-09 07:45:14 51°12.538 2°49.463 14 316 17.7 102420 46
2009-09-09 07:45:19 51°12.546 2°49.478 14.6 279 17.6 102430 46
2009-09-09 07:45:25 51°12.556 2°49.496 14.7 319 17.6 102430 46
2009-09-09 07:45:30 51°12.564 2°49.512 14 279 17.6 102430 46
2009-09-09 07:45:34 51°12.571 2°49.525 15.4 321 17.6 102430 46
2009-09-09 07:45:39 51°12.58 2°49.54 13.6 280 17.6 102430 46
2009-09-09 07:45:45 51°12.59 2°49.559 14.3 317 17.6 102430 46
2009-09-09 07:45:49 51°12.596 2°49.571 14.3 283 17.6 102440 46
2009-09-09 07:45:54 51°12.604 2°49.587 15.9 320 17.6 102440 46
2009-09-09 07:45:59 51°12.612 2°49.603 12.6 280 17.6 102430 46
2009-09-09 07:46:04 51°12.62 2°49.619 15.4 318 17.6 102430 46
2009-09-09 07:46:09 51°12.628 2°49.635 13.6 320 17.6 102430 46
2009-09-09 07:46:14 51°12.636 2°49.65 15.4 321 17.6 102430 46
2009-09-09 07:46:19 51°12.643 2°49.666 13.3 280 17.7 102420 46
2009-09-09 07:46:24 51°12.651 2°49.682 16.9 320 17.7 102420 46
2009-09-09 07:46:29 51°12.658 2°49.697 16.5 278 17.7 102430 46
2009-09-09 07:46:34 51°12.667 2°49.712 12.7 320 17.7 102430 46
2009-09-09 07:46:39 51°12.675 2°49.727 16.2 282 17.7 102430 46
2009-09-09 07:46:45 51°12.684 2°49.746 14.2 319 17.7 102430 46
2009-09-09 07:46:49 51°12.69 2°49.758 14.2 280 17.7 102440 46
2009-09-09 07:46:55 51°12.7 2°49.776 13.7 320 17.7 102440 46
2009-09-09 07:46:59 51°12.707 2°49.789 13.9 281 17.6 102430 47
2009-09-09 07:47:05 51°12.717 2°49.807 16.2 319 17.6 102430 47
2009-09-09 07:47:09 51°12.723 2°49.82 14.5 319 17.6 102420 45
2009-09-09 07:47:14 51°12.731 2°49.836 13.9 318 17.6 102420 45
2009-09-09 07:47:19 51°12.74 2°49.851 15.6 278 17.6 102440 46
2009-09-09 07:47:25 51°12.749 2°49.869 15.2 319 17.6 102440 46
2009-09-09 07:47:29 51°12.755 2°49.882 14.1 276 17.6 102420 46
2009-09-09 07:47:34 51°12.763 2°49.897 15 318 17.6 102420 46
2009-09-09 07:47:39 51°12.771 2°49.913 14.1 276 17.6 102430 46
2009-09-09 07:47:45 51°12.781 2°49.932 14.8 318 17.6 102430 46
2009-09-09 07:47:49 51°12.787 2°49.944 12.7 278 17.6 102430 45
2009-09-09 07:47:54 51°12.795 2°49.961 13.2 321 17.6 102430 45
2009-09-09 07:47:59 51°12.803 2°49.976 13.3 284 17.6 102420 46
2009-09-09 07:48:05 51°12.813 2°49.994 15 321 17.6 102420 46
2009-09-09 07:48:09 51°12.819 2°50.006 14.9 319 17.6 102440 47
2009-09-09 07:48:14 51°12.827 2°50.022 16.1 319 17.6 102440 47
2009-09-09 07:48:19 51°12.835 2°50.037 13.4 285 17.7 102450 47
2009-09-09 07:48:24 51°12.843 2°50.053 16.3 319 17.7 102450 47
2009-09-09 07:48:29 51°12.851 2°50.068 13.4 319 17.7 102430 46
2009-09-09 07:48:34 51°12.858 2°50.084 14.9 319 17.7 102430 46
2009-09-09 07:48:39 51°12.866 2°50.099 13.4 282 17.7 102440 46
2009-09-09 07:48:45 51°12.876 2°50.117 13 319 17.7 102440 46
2009-09-09 07:48:49 51°12.882 2°50.13 13.6 285 17.6 102430 46
2009-09-09 07:48:54 51°12.89 2°50.145 15.2 319 17.6 102430 46
2009-09-09 07:48:59 51°12.897 2°50.161 14.8 282 17.6 102440 46
2009-09-09 07:49:05 51°12.907 2°50.179 12.5 320 17.6 102440 46
2009-09-09 07:49:09 51°12.914 2°50.192 12.6 320 17.7 102440 46
2009-09-09 07:49:14 51°12.922 2°50.207 14 318 17.7 102440 46
2009-09-09 07:49:19 51°12.93 2°50.222 15.3 283 17.7 102440 46
2009-09-09 07:49:25 51°12.94 2°50.241 13.1 319 17.7 102440 46
2009-09-09 07:49:29 51°12.946 2°50.254 14.9 279 17.6 102430 46
2009-09-09 07:49:34 51°12.954 2°50.269 14.3 319 17.6 102430 46
2009-09-09 07:49:39 51°12.962 2°50.285 15.3 282 17.7 102440 46
2009-09-09 07:49:45 51°12.971 2°50.303 15 317 17.7 102440 46
2009-09-09 07:49:49 51°12.978 2°50.315 12.7 279 17.7 102440 45
2009-09-09 07:49:54 51°12.986 2°50.331 13.1 319 17.7 102440 45
2009-09-09 07:49:59 51°12.994 2°50.346 14.9 281 17.7 102430 46
2009-09-09 07:50:05 51°13.004 2°50.365 14.4 318 17.7 102430 46
2009-09-09 07:50:09 51°13.01 2°50.378 13.7 319 17.7 102440 46
2009-09-09 07:50:14 51°13.018 2°50.394 12.1 320 17.7 102440 46
2009-09-09 07:50:19 51°13.026 2°50.409 14.3 281 17.7 102440 46
2009-09-09 07:50:24 51°13.034 2°50.425 12.8 317 17.7 102440 46
2009-09-09 07:50:29 51°13.042 2°50.441 12.7 280 17.7 102440 47
2009-09-09 07:50:34 51°13.05 2°50.456 13.3 319 17.7 102440 47
2009-09-09 07:50:39 51°13.057 2°50.472 12.6 283 17.7 102450 46
2009-09-09 07:50:44 51°13.065 2°50.487 12.4 316 17.7 102450 46
2009-09-09 07:50:49 51°13.073 2°50.502 12.8 285 17.7 102440 47
2009-09-09 07:50:54 51°13.08 2°50.518 13.5 319 17.7 102440 47
2009-09-09 07:50:59 51°13.088 2°50.534 13.8 320 17.8 102440 47
2009-09-09 07:51:04 51°13.096 2°50.549 13.5 321 17.8 102440 47
2009-09-09 07:51:09 51°13.104 2°50.565 14.5 318 17.7 102440 46
2009-09-09 07:51:14 51°13.112 2°50.58 12.8 315 17.7 102440 46
2009-09-09 07:51:19 51°13.12 2°50.596 15.5 319 17.7 102440 46
2009-09-09 07:51:25 51°13.129 2°50.614 15 319 17.7 102440 46
2009-09-09 07:51:29 51°13.135 2°50.626 15.6 317 17.7 102440 46
2009-09-09 07:51:34 51°13.143 2°50.642 14.5 317 17.7 102440 46
2009-09-09 07:51:39 51°13.151 2°50.658 15.2 318 17.7 102440 46
2009-09-09 07:51:45 51°13.161 2°50.676 12.7 33 17.7 102440 46
2009-09-09 07:51:49 51°13.167 2°50.689 15 317 17.7 102440 46
2009-09-09 07:51:54 51°13.174 2°50.705 15.2 317 17.7 102440 46
2009-09-09 07:51:59 51°13.182 2°50.72 14.6 317 17.7 102430 46
2009-09-09 07:52:05 51°13.19 2°50.741 12.1 316 17.7 102430 46
2009-09-09 07:52:09 51°13.196 2°50.753 14.9 316 17.7 102430 46
2009-09-09 07:52:14 51°13.202 2°50.77 14.8 316 17.7 102430 46